[[{"header":{"parameterUnit":"m.s-1","parameterCategory":1,"la1":30.2991,"la2":30.254,"lo1":-89.0895,"lo2":-89.0444,"dy":0.0017,"dx":0.0017,"nx":28,"ny":28,"refTime":"2024-06-16T03:00:00:Z","depth":0,"parameterNumber":2,"parameterNumberName":"U-component_of_WINDS"},"data":[0,0,0,0,0,0,0,0,0,0,0,0,0,0,0,0,0,0,0,0,0,0,0,0,0,0,0,0,0,0,0,0,0,0,0,0,0,0,0,0,0,0,0,0,0,0,0,0,0,0,0,0,0,0,0,0,0,0,-0.3908,-0.3908,0,-0.3918,-0.3918,-0.3918,-0.3884,-0.3883,-0.3882,-0.3881,-0.3894,-0.3895,-0.3896,0,0,0,0,0,0,0,0,0,0,0,0,0,-0.3865,-0.3866,-0.3908,-0.3908,-0.3908,-0.3918,-0.3918,-0.3918,-0.3885,-0.3883,-0.3882,-0.3881,-0.3893,-0.3895,-0.3896,0,0,0,0,0,0,0,0,0,0,0,0,0,-0.388,-0.3866,-0.3908,-0.3893,-0.3892,-0.3918,-0.3918,-0.3918,-0.3885,-0.3883,-0.3882,-0.388,-0.3893,-0.3895,-0.3897,-0.3939,0,0,-0.3903,-0.3903,0,0,0,0,0,0,0,0,-0.3879,-0.3882,-0.3895,-0.3894,-0.3893,-0.3898,-0.3907,-0.3925,-0.3885,-0.3888,-0.3881,-0.388,-0.3897,-0.3898,-0.3903,-0.394,-0.394,-0.3903,-0.3904,-0.3905,-0.3905,0,0,0,0,0,0,0,-0.3878,-0.3881,-0.3912,-0.3895,-0.3894,-0.3887,-0.3887,-0.391,-0.3901,-0.3887,-0.3885,-0.3886,-0.3896,-0.3902,-0.3904,-0.394,-0.3903,-0.3904,-0.3906,-0.3906,-0.4014,-0.4016,0,0,0,0,0,0,-0.3879,-0.388,-0.3912,-0.3912,-0.3882,-0.3889,-0.3889,-0.3898,-0.39,-0.3899,-0.3888,-0.3885,-0.3899,-0.3901,-0.3904,-0.3956,-0.3905,-0.3906,-0.3908,-0.4013,-0.4015,-0.4017,0,0,0,0,0,0,-0.3878,-0.3882,-0.3911,-0.3896,-0.3899,-0.3891,-0.3901,-0.3899,-0.3905,-0.39,-0.3899,-0.3895,-0.3898,-0.3901,-0.3931,-0.3955,-0.3907,-0.3909,-0.4011,-0.4013,-0.4016,-0.4058,0,0,0,0,0,0,-0.3877,-0.3882,-0.3897,-0.3896,-0.39,-0.3937,-0.3903,-0.39,-0.3908,-0.3904,-0.3907,-0.3906,-0.3897,-0.3928,-0.3933,-0.3957,-0.3911,-0.4008,-0.4012,-0.4015,-0.4055,-0.4062,-0.4068,0,0,0,0,0,-0.3875,-0.3908,-0.3898,-0.3902,-0.3918,-0.3939,-0.3941,-0.3929,-0.391,-0.3926,-0.3923,-0.3906,-0.3952,-0.3932,-0.3936,-0.3962,-0.4007,-0.4011,-0.4015,-0.4052,-0.406,-0.4068,0,0,0,0,0,0,-0.3912,-0.3908,-0.3896,-0.393,-0.3935,-0.3933,-0.3953,-0.3938,-0.395,-0.3946,-0.3931,-0.3933,-0.3966,-0.3966,-0.3944,-0.4004,-0.3976,-0.3981,-0.4003,-0.4011,-0.4018,-0.4018,-0.3912,0,0,0,0,0,-0.3924,-0.394,-0.3936,-0.3966,-0.3969,-0.3961,-0.3969,-0.3959,-0.3965,-0.3967,-0.3966,-0.3973,-0.3989,-0.4,-0.4014,-0.4054,-0.4056,-0.4074,-0.4081,-0.4086,-0.4092,-0.4115,-0.4124,-0.4029,-0.4029,-0.4029,0,0,-0.395,-0.3949,-0.396,-0.3974,-0.3976,-0.3995,-0.3963,-0.3983,-0.3997,-0.397,-0.3999,-0.3999,-0.4005,-0.4041,-0.4057,-0.4043,-0.4118,-0.4091,-0.4096,-0.4098,-0.412,-0.4129,-0.4137,-0.4032,-0.4032,-0.4031,0,0,-0.4005,-0.4006,-0.4032,-0.4035,-0.404,-0.4034,-0.4041,-0.4041,-0.404,-0.4068,-0.4049,-0.4066,-0.4093,-0.4099,-0.4106,-0.4166,-0.4151,-0.4171,-0.4207,-0.423,-0.4238,-0.4244,-0.4268,-0.4276,-0.4175,-0.4176,-0.4176,0,-0.4037,-0.4062,-0.4047,-0.4069,-0.4077,-0.4053,-0.408,-0.4085,-0.4094,-0.4101,-0.4085,-0.412,-0.4122,-0.416,-0.4175,-0.418,-0.4189,-0.4171,-0.4238,-0.4244,-0.425,-0.4273,-0.4281,-0.4178,-0.4178,-0.4178,-0.4177,0,-0.4102,-0.412,-0.4141,-0.415,-0.416,-0.4184,-0.4175,-0.4187,-0.4176,-0.4173,-0.4203,-0.4205,-0.4221,-0.4229,-0.4219,-0.4266,-0.4258,-0.424,-0.4212,-0.4262,-0.4283,-0.4291,-0.4182,-0.4181,-0.418,-0.4179,0,0,-0.4182,-0.4183,-0.4191,-0.4196,-0.42,-0.4214,-0.4239,-0.4253,-0.4265,-0.4272,-0.4294,-0.4318,-0.4302,-0.4309,-0.43,-0.432,-0.4371,-0.43,-0.43,-0.4315,-0.4426,-0.4441,-0.4451,-0.436,-0.4362,-0.4363,-0.4426,0,-0.4238,-0.4279,-0.4267,-0.4309,-0.4327,-0.4305,-0.4326,-0.4332,-0.433,-0.4346,-0.4343,-0.4362,-0.4338,-0.4343,-0.4361,-0.436,-0.4393,-0.4355,-0.4383,-0.4384,-0.4384,-0.4461,-0.4477,-0.4536,-0.4434,-0.4435,-0.4436,0,-0.431,-0.432,-0.4364,-0.4366,-0.4373,-0.4393,-0.4406,-0.4421,-0.4427,-0.4424,-0.4434,-0.4421,-0.4447,-0.4417,-0.4454,-0.4429,-0.444,-0.4441,-0.4443,-0.4447,-0.4414,-0.4469,-0.4555,-0.4564,-0.4449,-0.4448,-0.4447,0,-0.4367,-0.4391,-0.4421,-0.4426,-0.4428,-0.4443,-0.4445,-0.445,-0.446,-0.4472,-0.4479,-0.4494,-0.4503,-0.4515,-0.4508,-0.4487,-0.4547,-0.4516,-0.4547,-0.4548,-0.4562,-0.4562,-0.4653,-0.4566,-0.4566,-0.4565,-0.4565,0,-0.4433,-0.4461,-0.4447,-0.4466,-0.4497,-0.4483,-0.4515,-0.4515,-0.452,-0.454,-0.4521,-0.454,-0.4527,-0.4546,-0.454,-0.4573,-0.4577,-0.4577,-0.4575,-0.458,-0.458,-0.4588,-0.4584,-0.4568,-0.4567,-0.4567,-0.4566,0,-0.4502,-0.4494,-0.4525,-0.4525,-0.4526,-0.455,-0.455,-0.4569,-0.4565,-0.459,-0.4595,-0.459,-0.4611,-0.4604,-0.4626,-0.4623,-0.4665,-0.4657,-0.4663,-0.4662,-0.4694,-0.4692,-0.4795,-0.4809,-0.4711,-0.4711,-0.4712,0,-0.4546,-0.4567,-0.4569,-0.4581,-0.4584,-0.4602,-0.4612,-0.46,-0.4612,-0.4622,-0.4639,-0.4658,-0.4673,-0.4708,-0.4707,-0.4725,-0.4719,-0.4754,-0.4722,-0.4726,-0.4723,-0.4722,-0.4726,-0.4761,-0.4762,-0.4763,-0.4764,0,-0.4625,-0.462,-0.4634,-0.4649,-0.4661,-0.4672,-0.4681,-0.4691,-0.468,-0.4694,-0.4715,-0.4726,-0.475,-0.477,-0.4786,-0.479,-0.4776,-0.4774,-0.4782,-0.4788,-0.4791,-0.4792,-0.4683,-0.4772,-0.4771,-0.477,-0.477,-0.477,-0.4684,-0.4703,-0.4708,-0.4726,-0.4731,-0.474,-0.4758,-0.4756,-0.4773,-0.479,-0.4782,-0.4807,-0.4815,-0.4835,-0.4842,-0.4862,-0.4849,-0.4861,-0.4864,-0.4868,-0.4873,-0.4786,-0.4865,-0.4864,-0.4864,-0.4864,-0.4864,0,-0.4765,-0.4767,-0.4783,-0.4796,-0.4811,-0.4794,-0.4804,-0.4818,-0.4839,-0.4847,-0.4862,-0.4887,-0.4907,-0.4908,-0.4927,-0.4944,-0.4938,-0.4949,-0.4949,-0.4951,-0.4882,-0.4874,-0.4954,-0.4954,-0.4954,-0.4954,-0.4954,-0.4954,-0.4808,-0.4839,-0.4835,-0.487,-0.4872,-0.4895,-0.4902,-0.4912,-0.4918,-0.4947,-0.4963,-0.4963,-0.4969,-0.4988,-0.5006,-0.5006,-0.5015,-0.503,-0.5028,-0.4964,-0.4955,-0.4947,-0.4939,-0.5031,-0.5031,-0.5095,-0.5095,-0.5096]},{"header":{"parameterUnit":"m.s-1","parameterCategory":1,"la1":30.2991,"la2":30.254,"lo1":-89.0895,"lo2":-89.0444,"dy":0.0017,"dx":0.0017,"nx":28,"ny":28,"refTime":"2024-06-16T03:00:00:Z","depth":0,"parameterNumber":3,"parameterNumberName":"V-component_of_WINDS"},"data":[0,0,0,0,0,0,0,0,0,0,0,0,0,0,0,0,0,0,0,0,0,0,0,0,0,0,0,0,0,0,0,0,0,0,0,0,0,0,0,0,0,0,0,0,0,0,0,0,0,0,0,0,0,0,0,0,0,0,2.744,2.7439,0,2.7387,2.7386,2.7385,2.74,2.7401,2.7402,2.7403,2.7342,2.7339,2.7336,0,0,0,0,0,0,0,0,0,0,0,0,0,2.7548,2.7546,2.744,2.7439,2.7438,2.7387,2.7386,2.7385,2.74,2.7401,2.7403,2.7404,2.7343,2.7339,2.7336,0,0,0,0,0,0,0,0,0,0,0,0,0,2.7498,2.7545,2.744,2.744,2.7439,2.7387,2.7386,2.7385,2.74,2.7401,2.7403,2.7404,2.7344,2.734,2.7336,2.7278,0,0,2.7324,2.7322,0,0,0,0,0,0,0,0,2.7501,2.7494,2.744,2.744,2.7439,2.7402,2.7402,2.7349,2.7399,2.7414,2.7403,2.7405,2.736,2.7355,2.7341,2.7275,2.7273,2.7323,2.7321,2.7319,2.7318,0,0,0,0,0,0,0,2.7505,2.7497,2.7419,2.744,2.7439,2.744,2.7435,2.7392,2.7378,2.7413,2.7414,2.7408,2.736,2.7345,2.7339,2.7272,2.7323,2.732,2.7317,2.7316,2.7155,2.7153,0,0,0,0,0,0,2.7509,2.7499,2.742,2.7417,2.7475,2.7437,2.7431,2.7412,2.7379,2.7376,2.7407,2.7409,2.7351,2.7344,2.7337,2.7266,2.7319,2.7315,2.7313,2.7157,2.7155,2.7153,0,0,0,0,0,0,2.7512,2.7502,2.7422,2.7459,2.7449,2.7434,2.7412,2.741,2.7395,2.7374,2.7371,2.7394,2.7352,2.7343,2.7293,2.7264,2.7314,2.731,2.7159,2.7156,2.7154,2.7124,0,0,0,0,0,0,2.7515,2.7503,2.7482,2.7458,2.7447,2.738,2.741,2.7408,2.7389,2.7391,2.7361,2.7358,2.7352,2.7299,2.7289,2.726,2.7307,2.7161,2.7158,2.7154,2.7128,2.7121,2.7115,0,0,0,0,0,2.7519,2.7475,2.7481,2.7471,2.7421,2.7379,2.7372,2.7368,2.7387,2.7364,2.7351,2.7359,2.727,2.7294,2.7283,2.7252,2.7163,2.7159,2.7155,2.713,2.7122,2.7115,0,0,0,0,0,0,2.7493,2.7471,2.7478,2.7426,2.7404,2.7381,2.7353,2.736,2.7331,2.7334,2.7329,2.7322,2.7271,2.7257,2.7283,2.7194,2.7219,2.7212,2.7204,2.7196,2.719,2.7193,2.7303,0,0,0,0,0,2.7482,2.7452,2.7434,2.7389,2.7378,2.7368,2.7349,2.7349,2.7326,2.7316,2.7299,2.7274,2.724,2.7218,2.7186,2.7127,2.7119,2.71,2.7094,2.7089,2.7082,2.7048,2.7039,2.7139,2.7139,2.7139,0,0,2.7457,2.7442,2.7422,2.7384,2.7367,2.7334,2.736,2.7324,2.7298,2.731,2.7261,2.7248,2.722,2.7165,2.714,2.7152,2.7054,2.7084,2.708,2.7075,2.7043,2.7033,2.7025,2.7136,2.7136,2.7137,0,0,2.7394,2.7381,2.7341,2.7325,2.7301,2.7294,2.7285,2.7262,2.7254,2.7207,2.7214,2.7184,2.7126,2.7106,2.7087,2.702,2.7024,2.7009,2.6974,2.6942,2.6934,2.6927,2.69,2.6891,2.7003,2.7003,2.7003,0,2.7365,2.7318,2.732,2.7283,2.7265,2.7277,2.7236,2.7219,2.7185,2.7171,2.7186,2.7114,2.7096,2.7036,2.702,2.7006,2.6993,2.7011,2.6935,2.6928,2.6921,2.6896,2.6886,2.7001,2.7002,2.7002,2.7002,0,2.7282,2.725,2.722,2.7189,2.7168,2.7129,2.7123,2.7102,2.7104,2.7096,2.7046,2.7026,2.699,2.6976,2.6977,2.6916,2.6924,2.6937,2.6961,2.691,2.6886,2.6876,2.6999,2.6999,2.7,2.7,0,0,2.7198,2.7171,2.716,2.7145,2.7121,2.7094,2.7056,2.7023,2.7003,2.698,2.6945,2.6898,2.6911,2.689,2.6889,2.6861,2.6806,2.6878,2.6877,2.6863,2.6734,2.6722,2.6711,2.6811,2.6809,2.6808,2.6736,0,2.7131,2.7065,2.7067,2.7005,2.6973,2.6986,2.6952,2.6932,2.6924,2.6894,2.6885,2.685,2.6871,2.6858,2.6832,2.6818,2.6779,2.6824,2.6776,2.6774,2.6779,2.6698,2.6685,2.6617,2.6727,2.6725,2.6724,0,2.7043,2.7019,2.6954,2.6934,2.6921,2.6891,2.6861,2.6834,2.6811,2.6807,2.6786,2.6789,2.6748,2.6778,2.672,2.675,2.6731,2.6722,2.6719,2.6711,2.6743,2.6685,2.6596,2.6585,2.6709,2.6711,2.6712,0,2.6984,2.6936,2.6891,2.6878,2.6855,2.6833,2.6822,2.6802,2.6782,2.6755,2.6742,2.6711,2.6692,2.6667,2.6662,2.6684,2.6603,2.6632,2.6596,2.6595,2.6574,2.6575,2.6478,2.6568,2.6568,2.6569,2.6569,0,2.6906,2.6865,2.6864,2.6835,2.679,2.6792,2.6746,2.6737,2.6719,2.6687,2.6697,2.6667,2.6664,2.6632,2.6628,2.6579,2.6572,2.6565,2.6564,2.6562,2.6563,2.6546,2.655,2.6566,2.6567,2.6567,2.6568,0,2.6831,2.6829,2.678,2.6763,2.6758,2.6724,2.6709,2.6681,2.6676,2.6636,2.6626,2.6616,2.658,2.6574,2.653,2.6527,2.6468,2.6473,2.6476,2.6475,2.6438,2.644,2.6324,2.6308,2.6413,2.6412,2.6411,0,2.6779,2.6748,2.6729,2.671,2.6699,2.6668,2.6648,2.665,2.6629,2.6602,2.6577,2.6542,2.6514,2.6455,2.6442,2.6409,2.6411,2.6373,2.6406,2.6405,2.6407,2.6407,2.6403,2.6365,2.6364,2.6363,2.6362,0,2.6687,2.6688,2.6661,2.6634,2.6611,2.6589,2.6568,2.6552,2.6551,2.6526,2.6491,2.6469,2.6427,2.6391,2.6358,2.6345,2.6352,2.6353,2.6342,2.6338,2.634,2.6335,2.6455,2.6354,2.6355,2.6356,2.6356,2.6357,2.662,2.6593,2.6575,2.6544,2.653,2.6511,2.6484,2.6476,2.6447,2.6413,2.6417,2.6376,2.6355,2.6313,2.6297,2.6265,2.6276,2.6262,2.6257,2.6252,2.6247,2.6349,2.6259,2.6259,2.626,2.626,2.626,0,2.6525,2.6516,2.6488,2.646,2.6435,2.6449,2.6427,2.6405,2.637,2.6351,2.6325,2.6283,2.6249,2.6236,2.6202,2.6179,2.6181,2.6169,2.6169,2.6165,2.624,2.6251,2.6168,2.6168,2.6168,2.6168,2.6168,2.6168,2.6473,2.6427,2.6427,2.6374,2.6364,2.6326,2.6312,2.6294,2.6279,2.6233,2.6206,2.6199,2.6181,2.6147,2.6116,2.6112,2.6098,2.6084,2.6081,2.6151,2.616,2.6169,2.6179,2.6082,2.6082,2.6009,2.6008,2.6008]}]]